格洛纳斯-785 COSMOS 2318 [GLONASS]

导读 | 星芒AI

COSMOS 2318 是一颗俄罗斯 GLONASS 卫星导航系统的一部分,于1995年发射。它属于GLONASS-M系列,旨在提供高精度的全球定位和导航服务。该卫星运行在中地球轨道,设计寿命约为7年,搭载了改进的原子钟和通信设备,以增强系统稳定性和定位精度。COSMOS 2318 在俄罗斯及国际导航体系中发挥重要作用,支持民用和军用应用。

基本信息
目录编号:
23622
目录名称:
COSMOS 2318 (GLONASS)
国际标识:
1995-037C
轨道中心:
EARTH
卫星名称:
格洛纳斯-785
卫星全名:
格洛纳斯-785 COSMOS 2318 [GLONASS]
卫星状态:
在轨 (已飞行11058 天)
发射日期:
1995-07-24 UTC
国别 :
俄罗斯(独联体) (CIS)
星等 :
--
轨道信息
数据来源 国际轨道数据
星历时间: 2025-10-21T06:19:39+0800
轨道信息已过期11天
半长轴: 25508.025km
偏心率: 0.001638
轨道倾角: 65.470°
近地点辐角 68.871°
升交点赤经 210.576°
平近点角 114.825°
近地点: 19088.107km
远地点: 19171.673km
周期: 675.733分钟
每日圈数: 2.13102
详细信息
平衡模式:
三轴稳定
覆盖范围:
全球
运营商:
列舍特涅夫卫星信息系统
运营商所在国:
俄罗斯
制造商(研发单位):
列舍特涅夫卫星信息系统
制造商所在国:
俄罗斯
使用方式:
暂无
卫星简介
格洛纳斯(GLONASS )是苏联/俄罗斯研制卫星导航系统。标准配置为24颗卫星,其中18颗卫星就能保证该系统为俄罗斯境内用户提供全部服务。该卫星已退役。
2D轨道图
3D轨道图
轨道高度分析图
轨道倾角分析图
轨道综合分析图
查看轨道综合分析图